Time,TemperatureF,DewpointF,PressureIn,WindDirection,WindDirectionDegrees,WindSpeedMPH,WindSpeedGustMPH,Humidity,HourlyPrecipIn,Conditions,Clouds,dailyrainin,SoftwareType,DateUTC
2013-03-15 00:04:00,55.7,55.3,30.14,ENE,69,0.7,2.0,98,0.00,NA,NA,-99.99,meteo_script,2013-03-15 07:04:00,
2013-03-15 00:09:00,55.5,55.1,30.14,ENE,69,0.4,4.0,98,0.00,NA,NA,-99.99,meteo_script,2013-03-15 07:09:00,
2013-03-15 00:14:00,55.5,55.3,30.14,ENE,77,0.8,5.0,99,0.00,NA,NA,-99.99,meteo_script,2013-03-15 07:14:00,
2013-03-15 00:19:00,55.4,55.0,30.14,North,0,0.6,0.6,98,0.00,NA,NA,-99.99,meteo_script,2013-03-15 07:19:00,
2013-03-15 00:24:00,55.4,55.2,30.14,ENE,74,0.2,1.0,99,0.00,NA,NA,-99.99,meteo_script,2013-03-15 07:24:00,
2013-03-15 00:29:00,55.2,55.0,30.14,North,0,0.2,0.2,99,0.00,NA,NA,-99.99,meteo_script,2013-03-15 07:29:00,
2013-03-15 00:34:00,55.2,55.0,30.14,North,0,0.0,0.0,99,0.00,NA,NA,-99.99,meteo_script,2013-03-15 07:34:00,
2013-03-15 00:39:00,55.4,55.3,30.14,North,0,0.2,0.2,99,0.00,NA,NA,-99.99,meteo_script,2013-03-15 07:39:00,
2013-03-15 00:44:00,55.4,55.2,30.15,North,0,0.1,0.1,99,0.00,NA,NA,-99.99,meteo_script,2013-03-15 07:44:00,
2013-03-15 00:49:00,55.4,55.2,30.14,North,0,0.0,0.0,99,0.00,NA,NA,-99.99,meteo_script,2013-03-15 07:49:00,
2013-03-15 00:54:00,55.4,55.2,30.14,North,0,0.0,0.0,99,0.00,NA,NA,-99.99,meteo_script,2013-03-15 07:54:00,
2013-03-15 00:59:00,55.4,55.2,30.14,North,0,0.0,0.0,99,0.00,NA,NA,-99.99,meteo_script,2013-03-15 07:59:00,
2013-03-15 01:04:00,55.4,55.2,30.14,North,0,0.0,0.0,99,0.00,NA,NA,-99.99,meteo_script,2013-03-15 08:04:00,
2013-03-15 01:09:00,55.2,55.0,30.14,North,0,0.0,0.0,99,0.00,NA,NA,-99.99,meteo_script,2013-03-15 08:09:00,
2013-03-15 01:14:00,55.2,55.1,30.14,North,0,0.0,0.0,99,0.00,NA,NA,-99.99,meteo_script,2013-03-15 08:14:00,
2013-03-15 01:19:00,55.2,55.0,30.14,North,0,0.0,0.0,99,0.00,NA,NA,-99.99,meteo_script,2013-03-15 08:19:00,
2013-03-15 01:24:00,55.1,55.1,30.14,North,0,0.0,0.0,100,0.00,NA,NA,-99.99,meteo_script,2013-03-15 08:24:00,
2013-03-15 01:29:00,55.2,55.2,30.14,North,0,0.0,0.0,99,0.00,NA,NA,-99.99,meteo_script,2013-03-15 08:29:00,
2013-03-15 01:34:00,55.1,54.9,30.14,North,0,0.0,0.0,99,0.00,NA,NA,-99.99,meteo_script,2013-03-15 08:34:00,
2013-03-15 01:39:00,55.1,54.9,30.14,ENE,61,0.1,1.0,99,0.00,NA,NA,-99.99,meteo_script,2013-03-15 08:39:00,
2013-03-15 01:44:00,54.9,54.9,30.14,North,0,0.1,0.1,100,0.00,NA,NA,-99.99,meteo_script,2013-03-15 08:44:00,
2013-03-15 01:49:00,54.9,54.7,30.14,North,0,0.0,0.0,99,0.00,NA,NA,-99.99,meteo_script,2013-03-15 08:49:00,
2013-03-15 01:54:00,54.9,54.9,30.14,North,0,0.0,0.0,99,0.00,NA,NA,-99.99,meteo_script,2013-03-15 08:54:00,
2013-03-15 01:59:00,54.9,54.9,30.14,North,0,0.0,0.0,99,0.00,NA,NA,-99.99,meteo_script,2013-03-15 08:59:00,
2013-03-15 02:04:00,54.9,54.7,30.13,North,0,0.1,0.1,99,0.00,NA,NA,-99.99,meteo_script,2013-03-15 09:04:00,
2013-03-15 02:09:00,54.9,54.9,30.13,ENE,59,0.1,2.0,100,0.00,NA,NA,-99.99,meteo_script,2013-03-15 09:09:00,
2013-03-15 02:14:00,54.9,54.9,30.13,North,0,0.0,0.0,100,0.00,NA,NA,-99.99,meteo_script,2013-03-15 09:14:00,
2013-03-15 02:19:00,54.9,54.9,30.13,NW,325,0.4,2.0,100,0.00,NA,NA,-99.99,meteo_script,2013-03-15 09:19:00,
2013-03-15 02:24:00,54.8,54.8,30.12,North,0,0.4,0.4,100,0.00,NA,NA,-99.99,meteo_script,2013-03-15 09:24:00,
2013-03-15 02:29:00,54.6,54.6,30.12,North,0,0.0,0.0,100,0.00,NA,NA,-99.99,meteo_script,2013-03-15 09:29:00,
2013-03-15 02:34:00,54.6,54.6,30.12,North,0,0.0,0.0,100,0.00,NA,NA,-99.99,meteo_script,2013-03-15 09:34:00,
2013-03-15 02:39:00,54.6,54.6,30.12,North,0,0.0,0.0,100,0.00,NA,NA,-99.99,meteo_script,2013-03-15 09:39:00,
2013-03-15 02:44:00,54.5,54.5,30.12,North,0,0.0,0.0,100,0.00,NA,NA,-99.99,meteo_script,2013-03-15 09:44:00,
2013-03-15 02:49:00,54.4,54.4,30.12,North,0,0.0,0.0,100,0.00,NA,NA,-99.99,meteo_script,2013-03-15 09:49:00,
2013-03-15 02:54:00,54.3,54.3,30.12,North,0,0.0,0.0,100,0.00,NA,NA,-99.99,meteo_script,2013-03-15 09:54:00,
2013-03-15 02:59:00,54.2,54.2,30.12,North,0,0.0,0.0,100,0.00,NA,NA,-99.99,meteo_script,2013-03-15 09:59:00,
2013-03-15 03:04:00,54.1,54.0,30.11,North,0,0.1,0.1,99,0.00,NA,NA,-99.99,meteo_script,2013-03-15 10:04:00,
2013-03-15 03:09:00,54.1,54.1,30.11,North,0,0.3,0.3,100,0.00,NA,NA,-99.99,meteo_script,2013-03-15 10:09:00,
2013-03-15 03:14:00,53.9,53.9,30.11,WNW,289,0.6,2.0,100,0.00,NA,NA,-99.99,meteo_script,2013-03-15 10:14:00,
2013-03-15 03:19:00,53.8,53.7,30.11,NW,310,1.1,5.0,99,0.00,NA,NA,-99.99,meteo_script,2013-03-15 10:19:00,
2013-03-15 03:24:00,53.6,53.6,30.11,NW,306,1.6,5.0,100,0.00,NA,NA,-99.99,meteo_script,2013-03-15 10:24:00,
2013-03-15 03:29:00,53.5,53.5,30.11,WNW,301,1.2,4.0,100,0.00,NA,NA,-99.99,meteo_script,2013-03-15 10:29:00,
2013-03-15 03:34:00,53.4,53.2,30.11,North,0,0.5,0.5,99,0.00,NA,NA,-99.99,meteo_script,2013-03-15 10:34:00,
2013-03-15 03:39:00,53.1,53.0,30.10,WNW,302,1.1,3.0,99,0.00,NA,NA,-99.99,meteo_script,2013-03-15 10:39:00,
2013-03-15 03:44:00,53.1,53.1,30.11,North,0,1.0,1.0,100,0.00,NA,NA,-99.99,meteo_script,2013-03-15 10:44:00,
2013-03-15 03:49:00,53.2,53.2,30.10,North,0,0.1,0.1,100,0.00,NA,NA,-99.99,meteo_script,2013-03-15 10:49:00,
2013-03-15 03:54:00,53.3,53.3,30.10,NW,309,0.3,2.0,100,0.00,NA,NA,-99.99,meteo_script,2013-03-15 10:54:00,
2013-03-15 03:59:00,53.3,53.3,30.10,North,0,0.3,0.3,100,0.00,NA,NA,-99.99,meteo_script,2013-03-15 10:59:00,
2013-03-15 04:04:00,53.2,53.2,30.09,NW,306,0.7,4.0,100,0.00,NA,NA,-99.99,meteo_script,2013-03-15 11:04:00,
2013-03-15 04:09:00,53.1,53.1,30.09,North,0,0.7,0.7,100,0.00,NA,NA,-99.99,meteo_script,2013-03-15 11:09:00,
2013-03-15 04:14:00,53.0,53.0,30.09,North,352,0.3,5.0,100,0.00,NA,NA,-99.99,meteo_script,2013-03-15 11:14:00,
2013-03-15 04:19:00,53.1,53.1,30.09,North,0,0.3,0.3,100,0.00,NA,NA,-99.99,meteo_script,2013-03-15 11:19:00,
2013-03-15 04:24:00,53.0,53.0,30.10,North,0,0.0,0.0,100,0.00,NA,NA,-99.99,meteo_script,2013-03-15 11:24:00,
2013-03-15 04:29:00,53.0,53.0,30.10,North,0,0.0,0.0,100,0.00,NA,NA,-99.99,meteo_script,2013-03-15 11:29:00,
2013-03-15 04:34:00,53.2,53.2,30.10,North,0,0.0,0.0,100,0.00,NA,NA,-99.99,meteo_script,2013-03-15 11:34:00,
2013-03-15 04:39:00,53.2,53.2,30.10,North,0,0.0,0.0,100,0.00,NA,NA,-99.99,meteo_script,2013-03-15 11:39:00,
2013-03-15 04:44:00,53.2,53.2,30.10,North,0,0.0,0.0,100,0.00,NA,NA,-99.99,meteo_script,2013-03-15 11:44:00,
2013-03-15 04:49:00,53.3,53.3,30.10,North,0,0.0,0.0,100,0.00,NA,NA,-99.99,meteo_script,2013-03-15 11:49:00,
2013-03-15 04:54:00,53.3,53.3,30.10,North,0,0.0,0.0,100,0.00,NA,NA,-99.99,meteo_script,2013-03-15 11:54:00,
2013-03-15 04:59:00,53.3,53.3,30.10,North,0,0.0,0.0,100,0.00,NA,NA,-99.99,meteo_script,2013-03-15 11:59:00,
2013-03-15 05:04:00,53.5,53.5,30.11,North,0,0.0,0.0,100,0.00,NA,NA,-99.99,meteo_script,2013-03-15 12:04:00,
2013-03-15 05:09:00,53.5,53.5,30.11,North,0,0.1,0.1,100,0.00,NA,NA,-99.99,meteo_script,2013-03-15 12:09:00,
2013-03-15 05:14:00,53.5,53.5,30.12,North,0,0.1,0.1,100,0.00,NA,NA,-99.99,meteo_script,2013-03-15 12:14:00,
2013-03-15 05:19:00,53.6,53.6,30.11,North,0,0.0,0.0,100,0.00,NA,NA,-99.99,meteo_script,2013-03-15 12:19:00,
2013-03-15 05:24:00,53.5,53.5,30.10,North,0,0.0,0.0,100,0.00,NA,NA,-99.99,meteo_script,2013-03-15 12:24:00,
2013-03-15 05:29:00,53.3,53.3,30.10,North,0,0.0,0.0,100,0.00,NA,NA,-99.99,meteo_script,2013-03-15 12:29:00,
2013-03-15 05:34:00,53.4,53.4,30.11,WSW,241,0.0,2.0,100,0.00,NA,NA,-99.99,meteo_script,2013-03-15 12:34:00,
2013-03-15 05:39:00,53.5,53.5,30.11,WSW,241,0.1,2.0,100,0.00,NA,NA,-99.99,meteo_script,2013-03-15 12:39:00,
2013-03-15 05:44:00,53.3,53.3,30.10,WSW,258,0.2,3.0,100,0.00,NA,NA,-99.99,meteo_script,2013-03-15 12:44:00,
2013-03-15 05:49:00,53.3,53.3,30.10,West,269,0.2,4.0,100,0.00,NA,NA,-99.99,meteo_script,2013-03-15 12:49:00,
2013-03-15 05:54:00,53.3,53.3,30.10,North,0,0.3,0.3,100,0.00,NA,NA,-99.99,meteo_script,2013-03-15 12:54:00,
2013-03-15 05:59:00,53.2,53.2,30.10,North,0,0.2,0.2,100,0.00,NA,NA,-99.99,meteo_script,2013-03-15 12:59:00,
2013-03-15 06:04:00,53.2,53.2,30.11,West,272,0.2,3.0,100,0.00,NA,NA,-99.99,meteo_script,2013-03-15 13:04:00,
2013-03-15 06:09:00,53.0,53.0,30.11,WNW,295,0.6,4.0,100,0.00,NA,NA,-99.99,meteo_script,2013-03-15 13:09:00,
2013-03-15 06:14:00,53.1,53.1,30.10,WNW,294,1.2,4.0,100,0.00,NA,NA,-99.99,meteo_script,2013-03-15 13:14:00,
2013-03-15 06:19:00,52.9,52.9,30.10,North,0,1.0,1.0,100,0.00,NA,NA,-99.99,meteo_script,2013-03-15 13:19:00,
2013-03-15 06:24:00,52.9,52.9,30.10,WNW,303,0.7,4.0,100,0.00,NA,NA,-99.99,meteo_script,2013-03-15 13:24:00,
2013-03-15 06:29:00,52.8,52.8,30.10,NW,311,0.4,2.0,100,0.00,NA,NA,-99.99,meteo_script,2013-03-15 13:29:00,
2013-03-15 06:34:00,52.6,52.6,30.10,North,0,0.2,0.2,100,0.00,NA,NA,-99.99,meteo_script,2013-03-15 13:34:00,
2013-03-15 06:39:00,52.6,52.6,30.10,WNW,303,0.2,3.0,100,0.00,NA,NA,-99.99,meteo_script,2013-03-15 13:39:00,
2013-03-15 06:44:00,52.4,52.4,30.11,North,0,0.4,0.4,100,0.00,NA,NA,-99.99,meteo_script,2013-03-15 13:44:00,
2013-03-15 06:49:00,52.3,52.3,30.11,North,0,0.2,0.2,100,0.00,NA,NA,-99.99,meteo_script,2013-03-15 13:49:00,
2013-03-15 06:54:00,52.3,52.3,30.11,NW,304,0.4,3.0,100,0.00,NA,NA,-99.99,meteo_script,2013-03-15 13:54:00,
2013-03-15 06:59:00,52.2,52.2,30.11,WNW,302,0.7,3.0,100,0.00,NA,NA,-99.99,meteo_script,2013-03-15 13:59:00,
2013-03-15 07:04:00,52.0,52.0,30.10,North,0,0.3,0.3,100,0.00,NA,NA,-99.99,meteo_script,2013-03-15 14:04:00,
2013-03-15 07:09:00,52.0,52.0,30.11,North,0,0.0,0.0,100,0.00,NA,NA,-99.99,meteo_script,2013-03-15 14:09:00,
2013-03-15 07:14:00,52.0,52.0,30.11,North,0,0.0,0.0,100,0.00,NA,NA,-99.99,meteo_script,2013-03-15 14:14:00,
2013-03-15 07:19:00,52.0,52.0,30.10,North,0,0.2,0.2,100,0.00,NA,NA,-99.99,meteo_script,2013-03-15 14:19:00,
2013-03-15 07:24:00,52.0,52.0,30.11,WNW,297,1.3,5.0,100,0.00,NA,NA,-99.99,meteo_script,2013-03-15 14:24:00,
2013-03-15 07:29:00,51.9,51.9,30.10,NW,306,1.7,3.0,100,0.00,NA,NA,-99.99,meteo_script,2013-03-15 14:29:00,
2013-03-15 07:34:00,51.9,51.9,30.11,NW,313,1.8,4.0,100,0.00,NA,NA,-99.99,meteo_script,2013-03-15 14:34:00,
2013-03-15 07:39:00,51.9,51.9,30.11,NW,304,2.0,5.0,100,0.00,NA,NA,-99.99,meteo_script,2013-03-15 14:39:00,
2013-03-15 07:44:00,51.9,51.9,30.11,North,0,1.3,1.3,100,0.00,NA,NA,-99.99,meteo_script,2013-03-15 14:44:00,
2013-03-15 07:49:00,51.9,51.9,30.11,NW,304,1.3,1.3,100,0.00,NA,NA,-99.99,meteo_script,2013-03-15 14:49:00,
2013-03-15 07:54:00,51.9,51.9,30.11,NW,305,2.1,4.0,100,0.00,NA,NA,-99.99,meteo_script,2013-03-15 14:54:00,
2013-03-15 07:59:00,51.9,51.9,30.11,NW,310,2.2,4.0,100,0.00,NA,NA,-99.99,meteo_script,2013-03-15 14:59:00,
2013-03-15 08:04:00,51.9,51.9,30.11,North,0,1.3,1.3,100,0.00,NA,NA,-99.99,meteo_script,2013-03-15 15:04:00,
2013-03-15 08:09:00,52.0,52.0,30.11,WNW,300,0.9,3.0,100,0.00,NA,NA,-99.99,meteo_script,2013-03-15 15:09:00,
2013-03-15 08:14:00,52.0,52.0,30.11,WNW,300,1.1,2.0,100,0.00,NA,NA,-99.99,meteo_script,2013-03-15 15:14:00,
2013-03-15 08:19:00,52.0,52.0,30.11,NW,314,1.3,5.0,100,0.00,NA,NA,-99.99,meteo_script,2013-03-15 15:19:00,
2013-03-15 08:24:00,52.2,52.2,30.11,North,0,1.0,1.0,100,0.00,NA,NA,-99.99,meteo_script,2013-03-15 15:24:00,
2013-03-15 08:29:00,52.3,52.3,30.11,North,0,0.2,0.2,100,0.00,NA,NA,-99.99,meteo_script,2013-03-15 15:29:00,
2013-03-15 08:34:00,52.5,52.5,30.11,North,0,0.0,0.0,100,0.00,NA,NA,-99.99,meteo_script,2013-03-15 15:34:00,
2013-03-15 08:39:00,52.6,52.6,30.12,North,0,0.0,0.0,100,0.00,NA,NA,-99.99,meteo_script,2013-03-15 15:39:00,
2013-03-15 08:44:00,52.8,52.8,30.12,North,0,0.3,0.3,100,0.00,NA,NA,-99.99,meteo_script,2013-03-15 15:44:00,
2013-03-15 08:50:00,52.9,52.9,30.12,ESE,121,0.6,3.0,100,0.00,NA,NA,-99.99,meteo_script,2013-03-15 15:50:00,
2013-03-15 08:55:00,53.0,53.0,30.12,North,0,0.6,0.6,100,0.00,NA,NA,-99.99,meteo_script,2013-03-15 15:55:00,
2013-03-15 09:00:00,53.0,53.0,30.12,North,0,0.3,0.3,100,0.00,NA,NA,-99.99,meteo_script,2013-03-15 16:00:00,
2013-03-15 09:05:00,53.3,53.3,30.12,SE,125,0.2,3.0,100,0.00,NA,NA,-99.99,meteo_script,2013-03-15 16:05:00,
2013-03-15 09:10:00,53.5,53.5,30.12,North,0,0.2,0.2,100,0.00,NA,NA,-99.99,meteo_script,2013-03-15 16:10:00,
2013-03-15 09:15:00,53.6,53.6,30.13,North,0,0.0,0.0,100,0.00,NA,NA,-99.99,meteo_script,2013-03-15 16:15:00,
2013-03-15 09:20:00,53.5,53.5,30.13,North,0,0.0,0.0,100,0.00,NA,NA,-99.99,meteo_script,2013-03-15 16:20:00,
2013-03-15 09:25:00,53.6,53.6,30.13,North,0,0.0,0.0,100,0.00,NA,NA,-99.99,meteo_script,2013-03-15 16:25:00,
2013-03-15 09:30:00,53.6,53.6,30.12,North,0,0.0,0.0,100,0.00,NA,NA,-99.99,meteo_script,2013-03-15 16:30:00,
2013-03-15 09:35:00,53.6,53.6,30.12,North,0,0.1,0.1,100,0.00,NA,NA,-99.99,meteo_script,2013-03-15 16:35:00,
2013-03-15 09:40:00,53.8,53.8,30.12,ENE,62,0.3,3.0,100,0.00,NA,NA,-99.99,meteo_script,2013-03-15 16:40:00,
2013-03-15 09:45:00,53.9,53.9,30.12,North,0,0.4,0.4,100,0.00,NA,NA,-99.99,meteo_script,2013-03-15 16:45:00,
2013-03-15 09:50:00,53.9,53.9,30.12,ESE,107,0.6,5.0,100,0.00,NA,NA,-99.99,meteo_script,2013-03-15 16:50:00,
2013-03-15 09:55:00,54.1,54.1,30.12,ESE,105,1.4,4.0,100,0.00,NA,NA,-99.99,meteo_script,2013-03-15 16:55:00,
2013-03-15 10:00:00,54.1,54.1,30.12,ESE,112,1.9,5.0,100,0.00,NA,NA,-99.99,meteo_script,2013-03-15 17:00:00,
2013-03-15 10:05:00,54.1,54.1,30.12,East,89,1.7,4.0,100,0.00,NA,NA,-99.99,meteo_script,2013-03-15 17:05:00,
2013-03-15 10:10:00,54.3,54.3,30.12,ESE,108,1.3,3.0,100,0.00,NA,NA,-99.99,meteo_script,2013-03-15 17:10:00,
2013-03-15 10:15:00,54.1,54.1,30.12,East,87,1.5,3.0,100,0.00,NA,NA,-99.99,meteo_script,2013-03-15 17:15:00,
2013-03-15 10:21:00,54.1,54.1,30.13,East,83,1.2,5.0,100,0.00,NA,NA,-99.99,meteo_script,2013-03-15 17:21:00,
2013-03-15 10:27:00,53.9,53.9,30.13,North,0,1.0,1.0,100,0.00,NA,NA,-99.99,meteo_script,2013-03-15 17:27:00,
2013-03-15 10:32:00,54.1,54.0,30.14,ESE,103,1.7,5.0,100,0.00,NA,NA,-99.99,meteo_script,2013-03-15 17:32:00,
2013-03-15 10:37:00,53.8,53.8,30.14,North,0,1.8,1.8,100,0.00,NA,NA,-99.99,meteo_script,2013-03-15 17:37:00,
2013-03-15 10:42:00,53.9,53.9,30.13,ENE,77,0.7,3.0,100,0.00,NA,NA,-99.99,meteo_script,2013-03-15 17:42:00,
2013-03-15 10:47:00,54.1,54.1,30.14,SE,125,0.6,4.0,100,0.00,NA,NA,-99.99,meteo_script,2013-03-15 17:47:00,
2013-03-15 10:53:00,54.2,54.2,30.14,North,0,1.3,1.3,100,0.00,NA,NA,-99.99,meteo_script,2013-03-15 17:53:00,
2013-03-15 10:58:00,54.3,54.3,30.14,East,91,1.2,3.0,100,0.00,NA,NA,-99.99,meteo_script,2013-03-15 17:58:00,
2013-03-15 11:03:00,54.5,54.5,30.14,ENE,73,1.0,4.0,100,0.00,NA,NA,-99.99,meteo_script,2013-03-15 18:03:00,
2013-03-15 11:08:00,54.6,54.6,30.14,ENE,69,1.0,3.0,100,0.00,NA,NA,-99.99,meteo_script,2013-03-15 18:08:00,
2013-03-15 11:13:00,54.9,54.9,30.14,ESE,119,0.7,3.0,100,0.00,NA,NA,-99.99,meteo_script,2013-03-15 18:13:00,
2013-03-15 11:18:00,55.1,55.1,30.14,SE,137,0.9,4.0,100,0.00,NA,NA,-99.99,meteo_script,2013-03-15 18:18:00,
2013-03-15 11:23:00,55.0,55.0,30.13,ESE,108,1.2,1.2,100,0.00,NA,NA,-99.99,meteo_script,2013-03-15 18:23:00,
2013-03-15 11:29:00,54.9,54.9,30.13,East,79,1.8,5.0,100,0.00,NA,NA,-99.99,meteo_script,2013-03-15 18:29:00,
2013-03-15 11:34:00,55.1,55.0,30.14,North,0,1.4,1.4,99,0.00,NA,NA,-99.99,meteo_script,2013-03-15 18:34:00,
2013-03-15 11:39:00,55.5,55.5,30.13,East,82,0.6,3.0,100,0.00,NA,NA,-99.99,meteo_script,2013-03-15 18:39:00,
2013-03-15 11:44:00,56.1,56.1,30.13,ENE,61,1.3,4.0,100,0.00,NA,NA,-99.99,meteo_script,2013-03-15 18:44:00,
2013-03-15 11:49:00,56.6,56.6,30.13,ENE,71,1.8,2.0,99,0.00,NA,NA,-99.99,meteo_script,2013-03-15 18:49:00,
2013-03-15 11:54:00,56.9,56.3,30.13,North,0,1.4,1.4,97,0.00,NA,NA,-99.99,meteo_script,2013-03-15 18:54:00,
2013-03-15 11:59:00,57.2,56.7,30.13,ESE,103,1.2,3.0,98,0.00,NA,NA,-99.99,meteo_script,2013-03-15 18:59:00,
2013-03-15 12:04:00,57.2,56.7,30.13,East,91,1.1,4.0,97,0.00,NA,NA,-99.99,meteo_script,2013-03-15 19:04:00,
2013-03-15 12:09:00,57.5,57.0,30.13,ESE,113,1.0,5.0,97,0.00,NA,NA,-99.99,meteo_script,2013-03-15 19:09:00,
2013-03-15 12:14:00,57.5,56.7,30.12,East,99,1.3,4.0,96,0.00,NA,NA,-99.99,meteo_script,2013-03-15 19:14:00,
2013-03-15 12:19:00,57.2,56.3,30.12,ENE,78,1.7,6.0,96,0.00,NA,NA,-99.99,meteo_script,2013-03-15 19:19:00,
2013-03-15 12:24:00,57.3,56.4,30.12,SE,135,1.6,3.0,96,0.00,NA,NA,-99.99,meteo_script,2013-03-15 19:24:00,
2013-03-15 12:29:00,57.6,56.7,30.12,ESE,118,1.7,5.0,96,0.00,NA,NA,-99.99,meteo_script,2013-03-15 19:29:00,
2013-03-15 12:34:00,57.5,56.6,30.12,East,97,2.0,4.0,95,0.00,NA,NA,-99.99,meteo_script,2013-03-15 19:34:00,
2013-03-15 12:39:00,57.3,56.2,30.12,ESE,106,2.0,6.0,95,0.00,NA,NA,-99.99,meteo_script,2013-03-15 19:39:00,
2013-03-15 12:44:00,57.3,56.2,30.11,East,100,1.2,2.0,95,0.00,NA,NA,-99.99,meteo_script,2013-03-15 19:44:00,
2013-03-15 12:49:00,57.5,56.6,30.12,SE,146,0.9,5.0,95,0.00,NA,NA,-99.99,meteo_script,2013-03-15 19:49:00,
2013-03-15 12:54:00,57.3,56.2,30.11,ESE,104,1.3,2.0,95,0.00,NA,NA,-99.99,meteo_script,2013-03-15 19:54:00,
2013-03-15 12:59:00,57.5,56.7,30.11,ESE,120,1.6,4.0,96,0.00,NA,NA,-99.99,meteo_script,2013-03-15 19:59:00,
2013-03-15 13:04:00,57.5,56.2,30.10,ESE,117,1.6,4.0,94,0.00,NA,NA,-99.99,meteo_script,2013-03-15 20:04:00,
2013-03-15 13:09:00,57.6,56.5,30.10,North,0,1.3,1.3,95,0.00,NA,NA,-99.99,meteo_script,2013-03-15 20:09:00,
2013-03-15 13:14:00,57.9,56.6,30.10,East,99,1.8,5.0,94,0.00,NA,NA,-99.99,meteo_script,2013-03-15 20:14:00,
2013-03-15 13:19:00,57.9,56.6,30.09,East,85,2.0,3.0,94,0.00,NA,NA,-99.99,meteo_script,2013-03-15 20:19:00,
2013-03-15 13:24:00,58.0,56.7,30.09,North,0,1.4,1.4,94,0.00,NA,NA,-99.99,meteo_script,2013-03-15 20:24:00,
2013-03-15 13:29:00,58.1,56.7,30.09,ENE,78,0.9,5.0,94,0.00,NA,NA,-99.99,meteo_script,2013-03-15 20:29:00,
2013-03-15 13:34:00,58.2,56.9,30.09,SE,133,1.2,4.0,94,0.00,NA,NA,-99.99,meteo_script,2013-03-15 20:34:00,
2013-03-15 13:39:00,58.5,57.0,30.08,East,86,1.9,7.0,93,0.00,NA,NA,-99.99,meteo_script,2013-03-15 20:39:00,
2013-03-15 13:44:00,58.5,56.9,30.08,East,93,1.5,5.0,92,0.00,NA,NA,-99.99,meteo_script,2013-03-15 20:44:00,
2013-03-15 13:49:00,58.8,57.3,30.08,North,0,1.1,1.1,93,0.00,NA,NA,-99.99,meteo_script,2013-03-15 20:49:00,
2013-03-15 13:54:00,59.0,57.0,30.08,East,99,1.4,5.0,91,0.00,NA,NA,-99.99,meteo_script,2013-03-15 20:54:00,
2013-03-15 13:59:00,59.0,57.2,30.08,ESE,104,1.3,4.0,92,0.00,NA,NA,-99.99,meteo_script,2013-03-15 20:59:00,
2013-03-15 14:04:00,58.8,56.8,30.08,SE,142,1.7,4.0,91,0.00,NA,NA,-99.99,meteo_script,2013-03-15 21:04:00,
2013-03-15 14:09:00,58.5,56.7,30.07,East,85,2.1,7.0,91,0.00,NA,NA,-99.99,meteo_script,2013-03-15 21:09:00,
2013-03-15 14:14:00,58.4,56.5,30.07,SE,134,1.6,4.0,91,0.00,NA,NA,-99.99,meteo_script,2013-03-15 21:14:00,
2013-03-15 14:19:00,58.4,56.6,30.07,SE,146,1.3,5.0,91,0.00,NA,NA,-99.99,meteo_script,2013-03-15 21:19:00,
2013-03-15 14:24:00,58.4,56.6,30.07,North,0,0.9,0.9,92,0.00,NA,NA,-99.99,meteo_script,2013-03-15 21:24:00,
2013-03-15 14:29:00,58.4,56.6,30.07,SE,133,0.6,1.0,92,0.00,NA,NA,-99.99,meteo_script,2013-03-15 21:29:00,
2013-03-15 14:34:00,58.4,56.6,30.07,ENE,71,1.1,5.0,92,0.00,NA,NA,-99.99,meteo_script,2013-03-15 21:34:00,
2013-03-15 14:39:00,58.2,56.4,30.07,SE,124,1.3,4.0,91,0.00,NA,NA,-99.99,meteo_script,2013-03-15 21:39:00,
2013-03-15 14:44:00,58.2,56.2,30.07,ESE,110,1.9,5.0,91,0.00,NA,NA,-99.99,meteo_script,2013-03-15 21:44:00,
2013-03-15 14:49:00,57.9,56.1,30.07,ESE,105,2.2,2.2,91,0.00,NA,NA,-99.99,meteo_script,2013-03-15 21:49:00,
2013-03-15 14:54:00,57.9,56.1,30.07,ESE,119,1.8,4.0,92,0.00,NA,NA,-99.99,meteo_script,2013-03-15 21:54:00,
2013-03-15 14:59:00,57.8,56.2,30.07,SSE,156,1.2,4.0,92,0.00,NA,NA,-99.99,meteo_script,2013-03-15 21:59:00,
2013-03-15 15:04:00,57.8,56.2,30.07,East,83,1.1,6.0,92,0.00,NA,NA,-99.99,meteo_script,2013-03-15 22:04:00,
2013-03-15 15:09:00,57.2,55.4,30.07,East,100,1.8,4.0,92,0.00,NA,NA,-99.99,meteo_script,2013-03-15 22:09:00,
2013-03-15 15:14:00,57.2,55.9,30.08,SE,136,1.6,5.0,94,0.00,NA,NA,-99.99,meteo_script,2013-03-15 22:14:00,
2013-03-15 15:19:00,57.0,55.7,30.08,South,185,1.6,4.0,93,0.00,NA,NA,-99.99,meteo_script,2013-03-15 22:19:00,
2013-03-15 15:24:00,57.0,55.7,30.07,East,85,1.5,3.0,94,0.00,NA,NA,-99.99,meteo_script,2013-03-15 22:24:00,
2013-03-15 15:29:00,56.9,55.5,30.07,North,0,0.7,0.7,93,0.00,NA,NA,-99.99,meteo_script,2013-03-15 22:29:00,
2013-03-15 15:34:00,56.7,55.4,30.06,North,0,0.2,0.2,94,0.00,NA,NA,-99.99,meteo_script,2013-03-15 22:34:00,
2013-03-15 15:39:00,56.7,55.4,30.06,ESE,102,0.9,4.0,94,0.00,NA,NA,-99.99,meteo_script,2013-03-15 22:39:00,
2013-03-15 15:44:00,57.0,55.8,30.06,East,97,1.3,3.0,94,0.00,NA,NA,-99.99,meteo_script,2013-03-15 22:44:00,
2013-03-15 15:49:00,57.2,56.1,30.06,SSE,157,0.8,4.0,95,0.00,NA,NA,-99.99,meteo_script,2013-03-15 22:49:00,
2013-03-15 15:54:00,57.2,55.9,30.06,SSE,151,0.6,4.0,94,0.00,NA,NA,-99.99,meteo_script,2013-03-15 22:54:00,
2013-03-15 15:59:00,57.2,56.1,30.06,North,0,0.9,0.9,94,0.00,NA,NA,-99.99,meteo_script,2013-03-15 22:59:00,
2013-03-15 16:04:00,57.0,55.7,30.07,North,0,0.8,0.8,94,0.00,NA,NA,-99.99,meteo_script,2013-03-15 23:04:00,
2013-03-15 16:09:00,56.8,55.6,30.07,SE,125,1.4,5.0,94,0.00,NA,NA,-99.99,meteo_script,2013-03-15 23:09:00,
2013-03-15 16:14:00,56.7,55.4,30.07,East,82,2.1,5.0,94,0.00,NA,NA,-99.99,meteo_script,2013-03-15 23:14:00,
2013-03-15 16:19:00,56.6,55.3,30.07,SSE,155,1.0,3.0,94,0.00,NA,NA,-99.99,meteo_script,2013-03-15 23:19:00,
2013-03-15 16:24:00,56.7,55.6,30.07,North,0,0.1,0.1,95,0.00,NA,NA,-99.99,meteo_script,2013-03-15 23:24:00,
2013-03-15 16:29:00,56.7,55.4,30.07,SSE,150,0.2,4.0,94,0.00,NA,NA,-99.99,meteo_script,2013-03-15 23:29:00,
2013-03-15 16:34:00,56.6,55.5,30.07,North,0,0.6,0.6,95,0.00,NA,NA,-99.99,meteo_script,2013-03-15 23:34:00,
2013-03-15 16:39:00,56.5,55.4,30.07,North,0,0.6,0.6,95,0.00,NA,NA,-99.99,meteo_script,2013-03-15 23:39:00,
2013-03-15 16:44:00,56.3,55.2,30.07,North,0,0.2,0.2,95,0.00,NA,NA,-99.99,meteo_script,2013-03-15 23:44:00,
2013-03-15 16:49:00,56.4,55.3,30.07,South,173,0.2,2.0,94,0.00,NA,NA,-99.99,meteo_script,2013-03-15 23:49:00,
2013-03-15 16:54:00,56.4,55.3,30.07,East,88,1.1,4.0,95,0.00,NA,NA,-99.99,meteo_script,2013-03-15 23:54:00,
2013-03-15 16:59:00,56.1,54.8,30.06,SE,128,1.3,1.3,94,0.00,NA,NA,-99.99,meteo_script,2013-03-15 23:59:00,
2013-03-15 17:04:00,56.1,55.1,30.06,SSE,155,0.6,4.0,95,0.00,NA,NA,-99.99,meteo_script,2013-03-16 00:04:00,
2013-03-15 17:09:00,56.1,54.9,30.06,East,80,0.8,4.0,94,0.00,NA,NA,-99.99,meteo_script,2013-03-16 00:09:00,
2013-03-15 17:14:00,56.0,54.7,30.06,North,0,0.9,0.9,94,0.00,NA,NA,-99.99,meteo_script,2013-03-16 00:14:00,
2013-03-15 17:19:00,56.0,54.9,30.06,North,0,0.4,0.4,95,0.00,NA,NA,-99.99,meteo_script,2013-03-16 00:19:00,
2013-03-15 17:24:00,55.8,54.7,30.06,SSE,148,0.5,4.0,95,0.00,NA,NA,-99.99,meteo_script,2013-03-16 00:24:00,
2013-03-15 17:29:00,55.6,54.6,30.06,East,95,0.7,3.0,95,0.00,NA,NA,-99.99,meteo_script,2013-03-16 00:29:00,
2013-03-15 17:34:00,55.5,54.4,30.06,North,0,0.3,0.3,95,0.00,NA,NA,-99.99,meteo_script,2013-03-16 00:34:00,
2013-03-15 17:39:00,55.5,54.6,30.06,North,0,0.1,0.1,96,0.00,NA,NA,-99.99,meteo_script,2013-03-16 00:39:00,
2013-03-15 17:44:00,55.5,54.6,30.06,ESE,103,0.2,2.0,96,0.00,NA,NA,-99.99,meteo_script,2013-03-16 00:44:00,
2013-03-15 17:49:00,55.5,54.6,30.06,East,101,0.6,3.0,96,0.00,NA,NA,-99.99,meteo_script,2013-03-16 00:49:00,
2013-03-15 17:54:00,55.4,54.5,30.06,North,0,0.5,0.5,96,0.00,NA,NA,-99.99,meteo_script,2013-03-16 00:54:00,
2013-03-15 17:59:00,55.2,54.2,30.05,North,0,0.0,0.0,95,0.00,NA,NA,-99.99,meteo_script,2013-03-16 00:59:00,
2013-03-15 18:04:00,55.4,54.5,30.05,North,0,0.0,0.0,96,0.00,NA,NA,-99.99,meteo_script,2013-03-16 01:04:00,
2013-03-15 18:09:00,55.4,54.5,30.05,ESE,115,0.2,1.0,96,0.00,NA,NA,-99.99,meteo_script,2013-03-16 01:09:00,
2013-03-15 18:14:00,55.1,54.2,30.05,North,0,0.7,0.7,95,0.00,NA,NA,-99.99,meteo_script,2013-03-16 01:14:00,
2013-03-15 18:19:00,54.9,54.0,30.05,North,0,0.5,0.5,96,0.00,NA,NA,-99.99,meteo_script,2013-03-16 01:19:00,
2013-03-15 18:24:00,54.8,53.9,30.06,North,0,0.0,0.0,96,0.00,NA,NA,-99.99,meteo_script,2013-03-16 01:24:00,
2013-03-15 18:29:00,54.8,54.0,30.06,North,0,0.0,0.0,96,0.00,NA,NA,-99.99,meteo_script,2013-03-16 01:29:00,
2013-03-15 18:34:00,54.6,54.0,30.05,North,0,0.0,0.0,97,0.00,NA,NA,-99.99,meteo_script,2013-03-16 01:34:00,
2013-03-15 18:39:00,54.6,54.0,30.05,North,0,0.0,0.0,97,0.00,NA,NA,-99.99,meteo_script,2013-03-16 01:39:00,
2013-03-15 18:44:00,54.5,53.9,30.05,North,0,0.0,0.0,97,0.00,NA,NA,-99.99,meteo_script,2013-03-16 01:44:00,
2013-03-15 18:49:00,54.5,53.9,30.05,North,0,0.0,0.0,97,0.00,NA,NA,-99.99,meteo_script,2013-03-16 01:49:00,
2013-03-15 18:54:00,54.5,54.1,30.06,SSE,156,0.2,1.0,98,0.00,NA,NA,-99.99,meteo_script,2013-03-16 01:54:00,
2013-03-15 18:59:00,54.5,54.0,30.05,ESE,105,0.3,3.0,97,0.00,NA,NA,-99.99,meteo_script,2013-03-16 01:59:00,
2013-03-15 19:04:00,54.3,53.8,30.05,North,0,0.1,0.1,97,0.00,NA,NA,-99.99,meteo_script,2013-03-16 02:04:00,
2013-03-15 19:09:00,54.2,53.7,30.05,North,0,0.0,0.0,97,0.00,NA,NA,-99.99,meteo_script,2013-03-16 02:09:00,
2013-03-15 19:14:00,54.1,53.7,30.05,North,0,0.0,0.0,98,0.00,NA,NA,-99.99,meteo_script,2013-03-16 02:14:00,
2013-03-15 19:19:00,54.1,53.7,30.05,North,0,0.0,0.0,97,0.00,NA,NA,-99.99,meteo_script,2013-03-16 02:19:00,
2013-03-15 19:24:00,54.1,53.7,30.05,East,95,0.2,3.0,97,0.00,NA,NA,-99.99,meteo_script,2013-03-16 02:24:00,
2013-03-15 19:29:00,54.1,53.7,30.06,North,0,0.2,0.2,98,0.00,NA,NA,-99.99,meteo_script,2013-03-16 02:29:00,
2013-03-15 19:34:00,53.9,53.5,30.06,North,0,0.0,0.0,98,0.00,NA,NA,-99.99,meteo_script,2013-03-16 02:34:00,
2013-03-15 19:39:00,53.9,53.5,30.06,East,86,0.4,3.0,98,0.00,NA,NA,-99.99,meteo_script,2013-03-16 02:39:00,
2013-03-15 19:44:00,53.8,53.4,30.06,East,90,0.5,2.0,98,0.00,NA,NA,-99.99,meteo_script,2013-03-16 02:44:00,
2013-03-15 19:49:00,53.6,53.3,30.06,North,0,0.1,0.1,98,0.00,NA,NA,-99.99,meteo_script,2013-03-16 02:49:00,
2013-03-15 19:54:00,53.6,53.4,30.07,ESE,103,0.4,3.0,99,0.00,NA,NA,-99.99,meteo_script,2013-03-16 02:54:00,
2013-03-15 20:00:00,53.5,53.1,30.07,North,0,0.4,0.4,98,0.00,NA,NA,-99.99,meteo_script,2013-03-16 03:00:00,
2013-03-15 20:05:00,53.5,53.1,30.08,South,184,0.7,3.0,98,0.00,NA,NA,-99.99,meteo_script,2013-03-16 03:05:00,
2013-03-15 20:10:00,53.3,52.9,30.08,North,0,0.7,0.7,98,0.00,NA,NA,-99.99,meteo_script,2013-03-16 03:10:00,
2013-03-15 20:15:00,53.3,52.9,30.08,North,0,0.1,0.1,98,0.00,NA,NA,-99.99,meteo_script,2013-03-16 03:15:00,
2013-03-15 20:20:00,53.4,53.2,30.08,SSE,147,0.2,3.0,99,0.00,NA,NA,-99.99,meteo_script,2013-03-16 03:20:00,
2013-03-15 20:25:00,53.3,53.1,30.07,North,0,0.2,0.2,99,0.00,NA,NA,-99.99,meteo_script,2013-03-16 03:25:00,
2013-03-15 20:30:00,53.2,53.0,30.08,East,101,0.1,2.0,99,0.00,NA,NA,-99.99,meteo_script,2013-03-16 03:30:00,
2013-03-15 20:35:00,53.0,52.8,30.08,North,0,0.0,0.0,99,0.00,NA,NA,-99.99,meteo_script,2013-03-16 03:35:00,
2013-03-15 20:40:00,53.0,52.9,30.07,North,0,0.0,0.0,99,0.00,NA,NA,-99.99,meteo_script,2013-03-16 03:40:00,
2013-03-15 20:45:00,53.0,52.8,30.08,North,0,0.0,0.0,99,0.00,NA,NA,-99.99,meteo_script,2013-03-16 03:45:00,
2013-03-15 20:50:00,53.0,53.0,30.08,North,0,0.0,0.0,100,0.00,NA,NA,-99.99,meteo_script,2013-03-16 03:50:00,
2013-03-15 20:55:00,53.0,52.9,30.08,North,0,0.0,0.0,99,0.00,NA,NA,-99.99,meteo_script,2013-03-16 03:55:00,
2013-03-15 21:00:00,53.1,53.1,30.08,North,0,0.0,0.0,100,0.00,NA,NA,-99.99,meteo_script,2013-03-16 04:00:00,
2013-03-15 21:01:00,53.1,52.9,30.08,North,0,0.0,0.0,99,0.00,NA,NA,-99.99,meteo_script,2013-03-16 04:01:00,
2013-03-15 21:06:00,52.9,52.9,30.08,North,0,0.0,0.0,99,0.00,NA,NA,-99.99,meteo_script,2013-03-16 04:06:00,
2013-03-15 21:11:00,52.9,52.9,30.08,North,0,0.0,0.0,100,0.00,NA,NA,-99.99,meteo_script,2013-03-16 04:11:00,
2013-03-15 21:16:00,52.9,52.9,30.08,North,0,0.0,0.0,100,0.00,NA,NA,-99.99,meteo_script,2013-03-16 04:16:00,
2013-03-15 21:17:00,52.9,52.9,30.08,North,0,0.0,0.0,100,0.00,NA,NA,-99.99,meteo_script,2013-03-16 04:17:00,
2013-03-15 21:22:00,53.0,53.0,30.08,North,0,0.0,0.0,99,0.00,NA,NA,-99.99,meteo_script,2013-03-16 04:22:00,
2013-03-15 21:27:00,53.0,53.0,30.08,North,0,0.0,0.0,100,0.00,NA,NA,-99.99,meteo_script,2013-03-16 04:27:00,
2013-03-15 21:32:00,53.0,53.0,30.08,North,0,0.0,0.0,100,0.00,NA,NA,-99.99,meteo_script,2013-03-16 04:32:00,
2013-03-15 21:37:00,53.0,53.0,30.08,North,0,0.0,0.0,99,0.00,NA,NA,-99.99,meteo_script,2013-03-16 04:37:00,
2013-03-15 21:42:00,53.0,53.0,30.08,North,0,0.0,0.0,100,0.00,NA,NA,-99.99,meteo_script,2013-03-16 04:42:00,
2013-03-15 21:47:00,53.0,53.0,30.08,North,0,0.0,0.0,100,0.00,NA,NA,-99.99,meteo_script,2013-03-16 04:47:00,
2013-03-15 21:52:00,53.0,53.0,30.08,North,0,0.0,0.0,100,0.00,NA,NA,-99.99,meteo_script,2013-03-16 04:52:00,
2013-03-15 21:57:00,53.0,53.0,30.08,North,0,0.1,0.1,99,0.00,NA,NA,-99.99,meteo_script,2013-03-16 04:57:00,
2013-03-15 22:02:00,52.9,52.9,30.08,North,0,0.2,0.2,100,0.00,NA,NA,-99.99,meteo_script,2013-03-16 05:02:00,
2013-03-15 22:07:00,52.9,52.9,30.08,North,0,0.3,0.3,100,0.00,NA,NA,-99.99,meteo_script,2013-03-16 05:07:00,
2013-03-15 22:12:00,52.8,52.8,30.08,North,0,0.2,0.2,100,0.00,NA,NA,-99.99,meteo_script,2013-03-16 05:12:00,
2013-03-15 22:17:00,52.7,52.7,30.08,North,0,0.1,0.1,100,0.00,NA,NA,-99.99,meteo_script,2013-03-16 05:17:00,
2013-03-15 22:22:00,52.6,52.6,30.08,North,0,0.0,0.0,100,0.00,NA,NA,-99.99,meteo_script,2013-03-16 05:22:00,
2013-03-15 22:27:00,52.5,52.5,30.08,NNE,30,0.4,2.0,100,0.00,NA,NA,-99.99,meteo_script,2013-03-16 05:27:00,
2013-03-15 22:32:00,52.5,52.5,30.08,North,0,0.8,0.8,100,0.00,NA,NA,-99.99,meteo_script,2013-03-16 05:32:00,
2013-03-15 22:37:00,52.5,52.4,30.08,North,0,0.6,0.6,100,0.00,NA,NA,-99.99,meteo_script,2013-03-16 05:37:00,
2013-03-15 22:42:00,52.5,52.5,30.08,North,359,0.7,5.0,100,0.00,NA,NA,-99.99,meteo_script,2013-03-16 05:42:00,
2013-03-15 22:47:00,52.5,52.5,30.07,North,0,1.0,2.0,100,0.00,NA,NA,-99.99,meteo_script,2013-03-16 05:47:00,
2013-03-15 22:52:00,52.4,52.4,30.07,North,0,0.5,0.5,100,0.00,NA,NA,-99.99,meteo_script,2013-03-16 05:52:00,
2013-03-15 22:57:00,52.4,52.4,30.07,North,0,0.1,0.1,100,0.00,NA,NA,-99.99,meteo_script,2013-03-16 05:57:00,
2013-03-15 23:02:00,52.5,52.5,30.07,North,0,0.0,0.0,100,0.00,NA,NA,-99.99,meteo_script,2013-03-16 06:02:00,
2013-03-15 23:07:00,52.5,52.5,30.07,North,0,0.0,1.0,100,0.00,NA,NA,-99.99,meteo_script,2013-03-16 06:07:00,
2013-03-15 23:12:00,52.5,52.5,30.07,North,0,0.0,0.0,100,0.00,NA,NA,-99.99,meteo_script,2013-03-16 06:12:00,
2013-03-15 23:17:00,52.6,52.6,30.07,North,0,0.1,0.1,100,0.00,NA,NA,-99.99,meteo_script,2013-03-16 06:17:00,
2013-03-15 23:22:00,52.6,52.6,30.07,NNE,12,0.5,3.0,100,0.00,NA,NA,-99.99,meteo_script,2013-03-16 06:22:00,
2013-03-15 23:27:00,52.6,52.6,30.07,North,0,0.4,0.4,100,0.00,NA,NA,-99.99,meteo_script,2013-03-16 06:27:00,
2013-03-15 23:32:00,52.6,52.6,30.07,North,0,0.0,0.0,100,0.00,NA,NA,-99.99,meteo_script,2013-03-16 06:32:00,
2013-03-15 23:37:00,52.7,52.7,30.07,North,0,0.0,0.0,100,0.00,NA,NA,-99.99,meteo_script,2013-03-16 06:37:00,
2013-03-15 23:42:00,52.7,52.7,30.07,North,0,0.0,0.0,100,0.00,NA,NA,-99.99,meteo_script,2013-03-16 06:42:00,
2013-03-15 23:47:00,52.8,52.8,30.06,NNE,16,0.1,2.0,100,0.00,NA,NA,-99.99,meteo_script,2013-03-16 06:47:00,
2013-03-15 23:52:00,52.8,52.8,30.06,ENE,77,0.8,3.0,100,0.00,NA,NA,-99.99,meteo_script,2013-03-16 06:52:00,
2013-03-15 23:58:00,52.8,52.8,30.06,East,87,1.3,7.0,100,0.00,NA,NA,-99.99,meteo_script,2013-03-16 06:58:00,